Portada
METAR-TAF:

METAR-TAF

Aeroports :

Buixehr, Iran

latitud: 28-59N, longitud: 050-50E, altitud: 19 m

Observació

L'informe es va fer fa 35 minuts, a les 07:00 UTC
Vent 12 kt del Oest/Nord-Oest
Temperatura 29°C
Humitat 55%
Pressió 1006 hPa
Visibilitat 10 km o més
sense núvols per sota de 1500 mi sense presència de cumulonimbus.

METAR: OIBB 190700Z 29012KT CAVOK 29/19 Q1006 A2971 NOSIG

Hora: 12:05 (07:35 UTC)

Pronòstic

L'informe es va fer fa 2 hores i 5 minuts, a les 05:30 UTC
Pronòstic vàlid del 19 a les 06 UTC al 19 a les 15 UTC
Vent 8 kt del Oest/Nord-Oest
Visibilitat: 7000 m
Temporalment
l' 19 a les 09 UTC al 19 a les 15 UTC
Vent 20 kt del Oest/Nord-Oest
Visibilitat: 5000 m
sorra,

TAF: OIBB 190530Z 1906/1915 30008KT 7000 NSC TEMPO 1909/1915 30020KT 5000 SA

Observacions i pronòstics meteorològics de més de 4000 aeroports (METAR i TAF).

Les estacions disponibles són els punts grocs i vermells al mapa.

Posi el ratolí al punt desitjat per veure el nom de l'estació.

Feu clic per veure les observacions i els pronòstics meteorològics.

Per canviar el mapa: feu clic els botons verds amb una creu de color negre per apropar; al botó verd amb un guió per allunyar la imatge; o en les fletxes verdes per a mapes adjacents.


METAR-TAF: